Location: Ab? ar R?sh Qibl?
(24.1397°N, 32.8965°E)
Time: 13:26:33
(UTC+00:00)

Daily predictions for brighter satellites

Satellite Brightness Start Highest point End
(mag) Time Altitude Azimuth Time Altitude Azimuth Time Altitude Azimuth
Cosmos 1814 Rocket 4.5 16:53:48 10° N 16:58:44 42° ENE 17:03:36 10° SE
Cosmos 1464 Rocket 4.5 16:54:09 10° NNE 16:59:49 39° E 17:05:29 10° SSE
Cosmos 1703 Rocket 3.5 16:55:35 10° S 16:59:52 88° E 17:04:12 10° N
SWIFT 3.5 16:57:17 10° SW 16:59:58 20° SSE 17:02:39 10° ESE
Cosmos 1656 Rocket 3.8 16:56:33 10° S 17:01:58 53° ESE 17:07:20 10° NNE
Palapa 6 Rocket 4.4 16:56:28 10° W 17:03:46 80° S 17:11:34 10° E
GP-B 4.3 17:00:42 10° NE 17:04:10 23° E 17:07:38 10° SE
Cosmos 1891 Rocket 4.4 17:00:50 10° N 17:07:00 80° E 17:13:02 10° S
Hubble Space Telescope 1.3 17:10:29 10° SW 17:13:59 35° SSE 17:17:30 10° E
CZ-2C R/B 3.7 17:15:20 11° ESE 17:17:35 21° ENE 17:20:05 10° NNE
IRIDIUM 104 4.3 17:12:44 10° S 17:17:56 88° E 17:23:10 10° N
Cosmos 44 4.2 17:17:51 10° SSE 17:20:59 20° ESE 17:24:06 10° ENE
Transit 2A Rocket 4.5 17:17:07 10° S 17:21:17 58° ESE 17:25:31 10° NNE
Cosmos 1328 3.6 17:22:18 10° S 17:25:54 82° W 17:29:33 10° N
Meteor 1-24 Rocket 4.4 17:24:10 10° SSW 17:29:43 56° W 17:35:04 10° N
SEDSat Delta rocket 3.9 17:24:52 10° WNW 17:29:44 52° SSW 17:34:10 16° SE
SJ-6B 3.4 17:27:32 10° S 17:31:00 50° W 17:34:25 10° NNW
Cosmos 2034 Rocket 4.3 17:25:00 10° N 17:31:07 48° E 17:37:11 10° SSE
Tiangong 0.3 17:31:07 10° W 17:33:52 25° NNW 17:36:38 10° NNE
Cosmos 2369 Rocket 2.2 17:30:47 10° S 17:36:21 58° ESE 17:41:55 10° NNE
Cosmos 2082 Rocket 2.5 17:30:57 10° N 17:36:29 49° ENE 17:40:38 17° SE
Cosmos 1300 Rocket 3.7 17:33:42 10° N 17:37:55 50° E 17:41:10 16° SSE
USA 267 3.3 17:33:14 13° SE 17:39:13 90° N 17:45:47 10° NW
CZ-4 R/B 1.1 17:36:23 15° SSE 17:39:22 63° ENE 17:43:01 10° N
Tsikada Rocket 4.0 17:34:24 10° S 17:40:42 73° E 17:47:04 10° N
Cosmos 1777 Rocket 4.0 17:36:24 10° S 17:41:31 59° ESE 17:46:37 10° NNE
Terra 3.7 17:41:13 12° E 17:41:57 12° ENE 17:43:50 10° NE
Cosmos 1461 3.0 17:39:33 10° NNW 17:43:34 66° WSW 17:46:34 16° SSE
Resurs 01 Rocket 2.4 17:39:30 10° S 17:43:46 52° W 17:48:05 10° NNW
Delta 7925 Rocket 3.1 17:40:59 10° WSW 17:45:34 68° SSE 17:49:15 17° E
BREEZE-M R/B 3.1 17:41:50 10° NW 17:46:16 47° SW 17:48:19 19° SSE
Cosmos 1378 Rocket 4.3 17:46:23 25° SE 17:47:45 30° E 17:51:29 10° NNE
USA 186 1.8 17:49:28 38° E 17:49:35 38° ENE 17:52:08 10° N
NATO 3D Rocket 4.0 17:44:27 10° W 17:49:50 66° S 17:54:39 22° ESE
Okean-O 4.4 17:51:56 15° ENE 17:52:03 15° ENE 17:54:28 10° NE
Okean O Rocket 2.8 17:56:56 23° E 17:57:24 23° ENE 18:00:51 10° NNE
Cosmos 2263 4.1 17:53:59 10° S 17:59:37 69° ESE 18:05:14 10° NNE
SPOT 5 3.2 17:56:43 25° SE 17:59:38 58° ENE 18:04:49 10° N
Cosmos 158 Rocket 4.0 17:55:42 10° NNW 18:00:31 71° WSW 18:04:05 18° S
PAYLOAD B 4.1 17:57:56 19° SSE 18:01:59 79° ENE 18:07:30 10° N
CZ-4B R/B 3.7 18:03:45 28° ENE 18:03:45 28° ENE 18:06:36 10° NNE
Cosmos 1606 1.9 18:03:05 10° N 18:06:08 88° ENE 18:06:26 70° S
Cosmos 1340 Rocket 4.0 18:08:06 10° NNE 18:10:37 26° ENE 18:10:37 26° ENE
Cosmos 1570 Rocket 4.0 18:07:42 10° N 18:12:53 60° ENE 18:14:30 41° SE
Cosmos 1900 4.5 18:14:01 41° SSE 18:15:05 48° ESE 18:19:54 10° NE
Helios 1B rocket 3.4 18:16:58 27° NE 18:16:58 27° NE 18:19:24 10° NNE
ERS-1 Rocket 3.5 18:16:05 37° E 18:16:42 39° ENE 18:21:19 10° N
ADEOS 4.4 18:25:08 18° SSW 18:28:42 46° W 18:33:41 10° NNW
OAO 2 Rocket 3.5 18:25:39 10° WSW 18:30:34 67° NNW 18:33:07 28° NE
Cosmos 990 Rocket 3.8 18:29:23 37° S 18:31:27 81° ESE 18:36:37 10° NNE
CZ-4C R/B 2.6 18:34:30 10° SW 18:38:05 41° WNW 18:42:13 10° NNE
SWIFT 4.3 18:35:50 10° WSW 18:36:43 16° WSW 18:36:43 16° WSW
IRS-1A Rocket 4.2 18:43:25 60° E 18:43:38 61° ENE 18:49:03 10° N
Nadezhda 4 Rocket 4.0 18:45:06 58° ESE 18:45:31 59° E 18:51:43 10° NNE
Helios 1A 3.4 18:42:11 10° N 18:46:02 55° WNW 18:46:02 55° WNW
Aureole 1 Rocket 4.3 18:49:35 48° ENE 18:49:35 48° ENE 18:55:23 10° NNE
Aurora 2 Rocket 4.5 18:43:54 10° SW 18:51:16 40° S 18:51:16 40° S
Palapa 6 Rocket 4.4 18:45:03 10° W 18:52:35 59° SSW 18:53:37 55° SSE
Hubble Space Telescope 2.4 18:50:09 10° W 18:52:05 28° W 18:52:05 28° W
Meteor 1-11 4.1 18:54:26 74° S 18:55:00 87° E 19:00:50 10° N
Cosmos 2221 Rocket 4.1 18:57:47 56° NNW 18:57:47 56° NNW 19:01:31 10° N
Cosmos 2285 Rocket 3.9 18:56:22 62° S 18:57:32 85° ESE 19:03:56 10° NNE
CZ-4B R/B 4.5 18:57:17 25° SW 18:59:21 34° W 19:04:14 10° NW
Ariane H10+ 4.5 18:53:56 10° SW 18:59:31 29° S 18:59:31 29° S
Cosmos 2208 Rocket 4.5 18:59:45 10° NNW 19:04:54 54° WSW 19:05:08 53° WSW
ASTEX 1 4.2 19:00:33 10° N 19:03:45 42° NNE 19:03:45 42° NNE
COSMOS 2406 4.2 19:01:58 10° NW 19:07:13 38° WSW 19:08:17 35° SW
Chandra Rocket (1) 3.3 18:49:03 10° WSW 19:08:39 81° SSE 19:09:46 66° E
Ariane Rocket 4.5 19:14:10 28° NNE 19:14:10 28° NNE 19:16:48 10° N
Terra 3.0 19:19:52 39° WNW 19:19:52 39° WNW 19:23:29 10° NNW
Okean O Rocket 4.0 19:34:13 18° W 19:34:13 18° W 19:36:29 10° NW
NOSS 3-4 (A) 4.1 19:42:36 10° NNW 19:49:40 79° NW 19:49:40 79° NW
NOSS 3-4 (C) 4.0 19:42:39 10° NNW 19:49:39 78° NW 19:49:39 78° NW
CENTAUR R/B 4.5 23:01:56 20° NNE 23:01:56 20° NNE 23:03:47 10° NNE
Cosmos 2333 Rocket 4.4 23:09:54 21° NNE 23:09:54 21° NNE 23:11:43 10° NNE
Milstar 3 Cent rocket 4.0 23:27:36 33° ENE 23:27:36 33° ENE 23:30:22 10° ENE
CZ-2D R/B 4.1 23:33:55 10° NNE 23:36:03 23° NE 23:36:03 23° NE
Cosmos 1844 Rocket 4.4 23:37:34 10° N 23:41:05 28° NE 23:41:05 28° NE
Cosmos 2360 Rocket 3.9 23:50:12 27° N 23:50:12 27° N 23:52:43 10° N
